Year,Month,Day,Hour,Minute,Value (Times are PST for windgust in km/hr)
2018,04,02,00,01,4.80
2018,04,02,00,02,6.40
2018,04,02,00,03,4.80
2018,04,02,00,04,4.80
2018,04,02,00,05,6.40
2018,04,02,00,06,1.60
2018,04,02,00,14,3.20
2018,04,02,00,15,6.40
2018,04,02,00,16,6.40
2018,04,02,00,17,3.20
2018,04,02,00,18,4.80
2018,04,02,00,19,3.20
2018,04,02,00,20,3.20
2018,04,02,00,21,4.80
2018,04,02,00,22,8.10
2018,04,02,00,23,8.10
2018,04,02,00,24,8.10
2018,04,02,00,25,6.40
2018,04,02,00,26,6.40
2018,04,02,00,27,6.40
2018,04,02,00,28,6.40
2018,04,02,00,29,4.80
2018,04,02,00,30,3.20
2018,04,02,00,33,1.60
2018,04,02,00,34,3.20
2018,04,02,00,35,3.20
2018,04,02,00,36,3.20
2018,04,02,00,37,3.20
2018,04,02,00,38,1.60
2018,04,02,01,00,1.60
2018,04,02,01,07,1.60
2018,04,02,01,08,3.20
2018,04,02,01,09,6.40
2018,04,02,01,10,6.40
2018,04,02,01,11,4.80
2018,04,02,01,12,4.80
2018,04,02,01,13,4.80
2018,04,02,01,14,4.80
2018,04,02,01,15,4.80
2018,04,02,01,16,4.80
2018,04,02,01,17,4.80
2018,04,02,01,18,3.20
2018,04,02,01,19,4.80
2018,04,02,01,20,4.80
2018,04,02,01,21,1.60
2018,04,02,01,33,3.20
2018,04,02,01,34,3.20
2018,04,02,01,38,3.20
2018,04,02,01,39,3.20
2018,04,02,01,40,3.20
2018,04,02,01,41,4.80
2018,04,02,01,42,3.20
2018,04,02,01,43,3.20
2018,04,02,01,44,3.20
2018,04,02,01,45,3.20
2018,04,02,01,46,1.60
2018,04,02,01,47,3.20
2018,04,02,01,48,1.60
2018,04,02,01,49,3.20
2018,04,02,01,50,1.60
2018,04,02,01,54,1.60
2018,04,02,01,55,1.60
2018,04,02,01,56,3.20
2018,04,02,01,57,3.20
2018,04,02,01,58,3.20
2018,04,02,01,59,3.20
2018,04,02,02,31,4.80
2018,04,02,02,32,4.80
2018,04,02,02,33,3.20
2018,04,02,02,34,4.80
2018,04,02,02,35,3.20
2018,04,02,02,36,3.20
2018,04,02,02,37,3.20
2018,04,02,02,38,1.60
2018,04,02,02,39,1.60
2018,04,02,02,44,3.20
2018,04,02,02,45,1.60
2018,04,02,02,46,3.20
2018,04,02,02,47,3.20
2018,04,02,02,48,1.60
2018,04,02,02,52,1.60
2018,04,02,02,53,4.80
2018,04,02,02,54,4.80
2018,04,02,02,55,4.80
2018,04,02,02,57,1.60
2018,04,02,02,58,1.60
2018,04,02,03,03,3.20
2018,04,02,03,04,1.60
2018,04,02,05,17,3.20
2018,04,02,05,18,3.20
2018,04,02,05,19,3.20
2018,04,02,05,20,3.20
2018,04,02,05,21,3.20
2018,04,02,05,22,3.20
2018,04,02,06,29,3.20
2018,04,02,06,30,3.20
2018,04,02,06,31,1.60
2018,04,02,06,32,1.60
2018,04,02,06,38,1.60
2018,04,02,06,39,1.60
2018,04,02,07,57,3.20
2018,04,02,07,58,4.80
2018,04,02,07,59,4.80
2018,04,02,08,00,3.20
2018,04,02,08,01,3.20
2018,04,02,08,02,3.20
2018,04,02,08,03,3.20
2018,04,02,08,04,3.20
2018,04,02,08,05,3.20
2018,04,02,08,07,1.60
2018,04,02,08,08,1.60
2018,04,02,08,09,3.20
2018,04,02,08,10,1.60
2018,04,02,08,13,1.60
2018,04,02,08,27,1.60
2018,04,02,08,31,1.60
2018,04,02,08,32,1.60
2018,04,02,08,44,3.20
2018,04,02,08,46,1.60
2018,04,02,08,47,1.60
2018,04,02,08,48,3.20
2018,04,02,08,49,4.80
2018,04,02,08,50,4.80
2018,04,02,08,51,6.40
2018,04,02,08,52,6.40
2018,04,02,08,53,4.80
2018,04,02,08,54,4.80
2018,04,02,08,55,4.80
2018,04,02,08,56,3.20
2018,04,02,08,57,1.60
2018,04,02,08,58,1.60
2018,04,02,08,59,1.60
2018,04,02,09,01,1.60
2018,04,02,09,02,3.20
2018,04,02,09,03,4.80
2018,04,02,09,04,4.80
2018,04,02,09,05,3.20
2018,04,02,09,06,3.20
2018,04,02,09,08,1.60
2018,04,02,09,21,1.60
2018,04,02,09,23,1.60
2018,04,02,09,25,3.20
2018,04,02,09,26,1.60
2018,04,02,09,27,1.60
2018,04,02,09,28,3.20
2018,04,02,09,29,3.20
2018,04,02,09,32,1.60
2018,04,02,09,33,3.20
2018,04,02,09,34,3.20
2018,04,02,09,35,1.60
2018,04,02,09,37,1.60
2018,04,02,09,38,1.60
2018,04,02,09,39,3.20
2018,04,02,09,40,3.20
2018,04,02,09,41,6.40
2018,04,02,09,42,3.20
2018,04,02,09,43,1.60
2018,04,02,09,47,1.60
2018,04,02,09,59,1.60
2018,04,02,10,23,1.60
2018,04,02,10,27,3.20
2018,04,02,10,28,6.40
2018,04,02,10,29,6.40
2018,04,02,10,30,3.20
2018,04,02,10,31,3.20
2018,04,02,10,32,3.20
2018,04,02,10,33,6.40
2018,04,02,10,34,1.60
2018,04,02,10,35,1.60
2018,04,02,10,38,4.80
2018,04,02,10,39,8.10
2018,04,02,10,40,8.10
2018,04,02,10,41,4.80
2018,04,02,10,42,3.20
2018,04,02,10,43,8.10
2018,04,02,10,44,8.10
2018,04,02,10,45,8.10
2018,04,02,10,46,6.40
2018,04,02,10,47,4.80
2018,04,02,10,48,8.10
2018,04,02,10,49,8.10
2018,04,02,10,50,8.10
2018,04,02,10,51,6.40
2018,04,02,10,52,6.40
2018,04,02,10,53,4.80
2018,04,02,10,54,8.10
2018,04,02,10,55,8.10
2018,04,02,10,56,4.80
2018,04,02,10,57,4.80
2018,04,02,10,58,4.80
2018,04,02,10,59,6.40
2018,04,02,11,00,9.60
2018,04,02,11,01,8.10
2018,04,02,11,02,6.40
2018,04,02,11,03,6.40
2018,04,02,11,04,4.80
2018,04,02,11,05,4.80
2018,04,02,11,06,11.30
2018,04,02,11,07,9.60
2018,04,02,11,08,8.10
2018,04,02,11,09,9.60
2018,04,02,11,10,4.80
2018,04,02,11,11,3.20
2018,04,02,11,12,4.80
2018,04,02,11,13,1.60
2018,04,02,11,14,9.60
2018,04,02,11,15,8.10
2018,04,02,11,16,4.80
2018,04,02,11,17,3.20
2018,04,02,11,19,6.40
2018,04,02,11,20,6.40
2018,04,02,11,21,3.20
2018,04,02,11,22,3.20
2018,04,02,11,23,3.20
2018,04,02,11,24,1.60
2018,04,02,11,26,3.20
2018,04,02,11,27,4.80
2018,04,02,11,28,1.60
2018,04,02,11,30,4.80
2018,04,02,11,31,6.40
2018,04,02,11,32,6.40
2018,04,02,11,33,6.40
2018,04,02,11,34,1.60
2018,04,02,11,35,3.20
2018,04,02,11,36,4.80
2018,04,02,11,37,4.80
2018,04,02,11,38,4.80
2018,04,02,11,39,6.40
2018,04,02,11,40,8.10
2018,04,02,11,41,6.40
2018,04,02,11,42,9.60
2018,04,02,11,43,4.80
2018,04,02,11,44,4.80
2018,04,02,11,45,8.10
2018,04,02,11,46,6.40
2018,04,02,11,47,6.40
2018,04,02,11,48,8.10
2018,04,02,11,49,9.60
2018,04,02,11,50,1.60
2018,04,02,11,51,3.20
2018,04,02,11,52,6.40
2018,04,02,11,53,4.80
2018,04,02,11,54,3.20
2018,04,02,11,55,6.40
2018,04,02,11,56,4.80
2018,04,02,11,57,8.10
2018,04,02,11,58,4.80
2018,04,02,11,59,4.80
2018,04,02,12,00,6.40
2018,04,02,12,01,4.80
2018,04,02,12,02,6.40
2018,04,02,12,03,6.40
2018,04,02,12,04,9.60
2018,04,02,12,05,9.60
2018,04,02,12,06,9.60
2018,04,02,12,07,4.80
2018,04,02,12,08,8.10
2018,04,02,12,09,9.60
2018,04,02,12,10,6.40
2018,04,02,12,11,11.30
2018,04,02,12,12,9.60
2018,04,02,12,13,9.60
2018,04,02,12,14,8.10
2018,04,02,12,15,8.10
2018,04,02,12,16,6.40
2018,04,02,12,17,8.10
2018,04,02,12,18,8.10
2018,04,02,12,19,4.80
2018,04,02,12,20,9.60
2018,04,02,12,21,6.40
2018,04,02,12,22,8.10
2018,04,02,12,23,8.10
2018,04,02,12,24,6.40
2018,04,02,12,25,3.20
2018,04,02,12,26,9.60
2018,04,02,12,27,8.10
2018,04,02,12,28,12.90
2018,04,02,12,29,6.40
2018,04,02,12,30,6.40
2018,04,02,12,31,3.20
2018,04,02,12,32,8.10
2018,04,02,12,33,8.10
2018,04,02,12,34,6.40
2018,04,02,12,35,8.10
2018,04,02,12,36,8.10
2018,04,02,12,37,6.40
2018,04,02,12,38,6.40
2018,04,02,12,39,6.40
2018,04,02,12,40,3.20
2018,04,02,12,41,3.20
2018,04,02,12,42,6.40
2018,04,02,12,44,4.80
2018,04,02,12,45,8.10
2018,04,02,12,46,6.40
2018,04,02,12,47,3.20
2018,04,02,12,48,4.80
2018,04,02,12,49,4.80
2018,04,02,12,50,4.80
2018,04,02,12,51,4.80
2018,04,02,12,52,3.20
2018,04,02,12,53,11.30
2018,04,02,12,54,11.30
2018,04,02,12,55,9.60
2018,04,02,12,56,8.10
2018,04,02,12,57,11.30
2018,04,02,12,58,9.60
2018,04,02,12,59,9.60
2018,04,02,13,00,9.60
2018,04,02,13,01,9.60
2018,04,02,13,02,6.40
2018,04,02,13,03,6.40
2018,04,02,13,04,9.60
2018,04,02,13,05,9.60
2018,04,02,13,06,9.60
2018,04,02,13,07,6.40
2018,04,02,13,08,6.40
2018,04,02,13,09,6.40
2018,04,02,13,10,6.40
2018,04,02,13,11,4.80
2018,04,02,13,12,6.40
2018,04,02,13,13,9.60
2018,04,02,13,14,9.60
2018,04,02,13,15,9.60
2018,04,02,13,16,6.40
2018,04,02,13,17,6.40
2018,04,02,13,18,6.40
2018,04,02,13,19,6.40
2018,04,02,13,20,4.80
2018,04,02,13,21,11.30
2018,04,02,13,22,8.10
2018,04,02,13,23,12.90
2018,04,02,13,24,14.50
2018,04,02,13,25,12.90
2018,04,02,13,26,8.10
2018,04,02,13,27,11.30
2018,04,02,13,28,11.30
2018,04,02,13,29,8.10
2018,04,02,13,30,9.60
2018,04,02,13,31,6.40
2018,04,02,13,32,6.40
2018,04,02,13,33,6.40
2018,04,02,13,34,6.40
2018,04,02,13,35,6.40
2018,04,02,13,36,4.80
2018,04,02,13,37,8.10
2018,04,02,13,38,6.40
2018,04,02,13,39,8.10
2018,04,02,13,40,9.60
2018,04,02,13,41,6.40
2018,04,02,13,42,8.10
2018,04,02,13,43,14.50
2018,04,02,13,44,16.10
2018,04,02,13,45,16.10
2018,04,02,13,46,6.40
2018,04,02,13,47,8.10
2018,04,02,13,48,6.40
2018,04,02,13,49,11.30
2018,04,02,13,50,12.90
2018,04,02,13,51,12.90
2018,04,02,13,52,9.60
2018,04,02,13,53,11.30
2018,04,02,13,54,12.90
2018,04,02,13,55,9.60
2018,04,02,13,56,12.90
2018,04,02,13,57,14.50
2018,04,02,13,58,14.50
2018,04,02,13,59,12.90
2018,04,02,14,00,14.50
2018,04,02,14,01,12.90
2018,04,02,14,02,16.10
2018,04,02,14,03,12.90
2018,04,02,14,04,12.90
2018,04,02,14,05,14.50
2018,04,02,14,06,19.30
2018,04,02,14,07,17.70
2018,04,02,14,08,14.50
2018,04,02,14,09,11.30
2018,04,02,14,10,8.10
2018,04,02,14,11,12.90
2018,04,02,14,12,12.90
2018,04,02,14,13,11.30
2018,04,02,14,14,12.90
2018,04,02,14,15,9.60
2018,04,02,14,16,14.50
2018,04,02,14,17,17.70
2018,04,02,14,18,16.10
2018,04,02,14,19,8.10
2018,04,02,14,20,19.30
2018,04,02,14,21,17.70
2018,04,02,14,22,16.10
2018,04,02,14,23,16.10
2018,04,02,14,24,11.30
2018,04,02,14,25,6.40
2018,04,02,14,26,14.50
2018,04,02,14,27,19.30
2018,04,02,14,28,17.70
2018,04,02,14,29,19.30
2018,04,02,14,30,19.30
2018,04,02,14,31,19.30
2018,04,02,14,32,16.10
2018,04,02,14,33,14.50
2018,04,02,14,34,14.50
2018,04,02,14,35,9.60
2018,04,02,14,36,11.30
2018,04,02,14,37,14.50
2018,04,02,14,38,14.50
2018,04,02,14,39,24.20
2018,04,02,14,40,16.10
2018,04,02,14,41,12.90
2018,04,02,14,42,22.50
2018,04,02,14,43,24.20
2018,04,02,14,44,24.20
2018,04,02,14,45,22.50
2018,04,02,14,46,22.50
2018,04,02,14,47,19.30
2018,04,02,14,48,17.70
2018,04,02,14,49,17.70
2018,04,02,14,50,17.70
2018,04,02,14,51,17.70
2018,04,02,14,52,25.70
2018,04,02,14,53,16.10
2018,04,02,14,54,17.70
2018,04,02,14,55,17.70
2018,04,02,14,56,22.50
2018,04,02,14,57,14.50
2018,04,02,14,58,19.30
2018,04,02,14,59,20.90
2018,04,02,15,00,19.30
2018,04,02,15,01,16.10
2018,04,02,15,02,27.40
2018,04,02,15,03,33.80
2018,04,02,15,04,20.90
2018,04,02,15,05,17.70
2018,04,02,15,06,19.30
2018,04,02,15,07,29.00
2018,04,02,15,08,27.40
2018,04,02,15,09,17.70
2018,04,02,15,10,19.30
2018,04,02,15,11,22.50
2018,04,02,15,12,16.10
2018,04,02,15,13,20.90
2018,04,02,15,14,29.00
2018,04,02,15,15,22.50
2018,04,02,15,16,14.50
2018,04,02,15,17,16.10
2018,04,02,15,18,17.70
2018,04,02,15,19,30.60
2018,04,02,15,20,22.50
2018,04,02,15,21,25.70
2018,04,02,15,22,16.10
2018,04,02,15,23,20.90
2018,04,02,15,24,17.70
2018,04,02,15,25,20.90
2018,04,02,15,26,27.40
2018,04,02,15,27,20.90
2018,04,02,15,28,17.70
2018,04,02,15,29,25.70
2018,04,02,15,30,30.60
2018,04,02,15,31,29.00
2018,04,02,15,32,30.60
2018,04,02,15,33,22.50
2018,04,02,15,34,24.20
2018,04,02,15,35,27.40
2018,04,02,15,36,33.80
2018,04,02,15,37,17.70
2018,04,02,15,38,17.70
2018,04,02,15,39,32.20
2018,04,02,15,40,25.70
2018,04,02,15,41,17.70
2018,04,02,15,42,17.70
2018,04,02,15,43,20.90
2018,04,02,15,44,25.70
2018,04,02,15,45,25.70
2018,04,02,15,46,22.50
2018,04,02,15,47,27.40
2018,04,02,15,48,22.50
2018,04,02,15,49,20.90
2018,04,02,15,50,20.90
2018,04,02,15,51,24.20
2018,04,02,15,52,22.50
2018,04,02,15,53,19.30
2018,04,02,15,54,22.50
2018,04,02,15,55,19.30
2018,04,02,15,56,8.10
2018,04,02,15,57,30.60
2018,04,02,15,58,27.40
2018,04,02,15,59,30.60
2018,04,02,16,00,24.20
2018,04,02,16,01,25.70
2018,04,02,16,02,25.70
2018,04,02,16,03,17.70
2018,04,02,16,04,24.20
2018,04,02,16,05,29.00
2018,04,02,16,06,24.20
2018,04,02,16,07,22.50
2018,04,02,16,08,17.70
2018,04,02,16,09,27.40
2018,04,02,16,10,29.00
2018,04,02,16,11,33.80
2018,04,02,16,12,27.40
2018,04,02,16,13,19.30
2018,04,02,16,14,27.40
2018,04,02,16,15,29.00
2018,04,02,16,16,29.00
2018,04,02,16,17,24.20
2018,04,02,16,18,32.20
2018,04,02,16,19,27.40
2018,04,02,16,20,24.20
2018,04,02,16,21,24.20
2018,04,02,16,22,37.00
2018,04,02,16,23,33.80
2018,04,02,16,24,25.70
2018,04,02,16,25,17.70
2018,04,02,16,26,29.00
2018,04,02,16,27,24.20
2018,04,02,16,28,16.10
2018,04,02,16,29,30.60
2018,04,02,16,30,29.00
2018,04,02,16,31,22.50
2018,04,02,16,32,20.90
2018,04,02,16,33,29.00
2018,04,02,16,34,25.70
2018,04,02,16,35,24.20
2018,04,02,16,36,33.80
2018,04,02,16,37,24.20
2018,04,02,16,38,24.20
2018,04,02,16,39,24.20
2018,04,02,16,40,22.50
2018,04,02,16,41,19.30
2018,04,02,16,42,25.70
2018,04,02,16,43,32.20
2018,04,02,16,44,22.50
2018,04,02,16,45,19.30
2018,04,02,16,46,20.90
2018,04,02,16,47,24.20
2018,04,02,16,48,19.30
2018,04,02,16,49,27.40
2018,04,02,16,50,29.00
2018,04,02,16,51,29.00
2018,04,02,16,52,32.20
2018,04,02,16,53,27.40
2018,04,02,16,54,27.40
2018,04,02,16,55,22.50
2018,04,02,16,56,17.70
2018,04,02,16,57,22.50
2018,04,02,16,58,27.40
2018,04,02,16,59,20.90
2018,04,02,17,00,27.40
2018,04,02,17,01,25.70
2018,04,02,17,02,25.70
2018,04,02,17,03,17.70
2018,04,02,17,04,19.30
2018,04,02,17,05,20.90
2018,04,02,17,06,29.00
2018,04,02,17,07,27.40
2018,04,02,17,08,17.70
2018,04,02,17,09,35.40
2018,04,02,17,10,25.70
2018,04,02,17,11,27.40
2018,04,02,17,12,29.00
2018,04,02,17,13,14.50
2018,04,02,17,14,17.70
2018,04,02,17,15,20.90
2018,04,02,17,16,25.70
2018,04,02,17,17,29.00
2018,04,02,17,18,22.50
2018,04,02,17,19,27.40
2018,04,02,17,20,27.40
2018,04,02,17,21,22.50
2018,04,02,17,22,22.50
2018,04,02,17,23,20.90
2018,04,02,17,24,29.00
2018,04,02,17,25,37.00
2018,04,02,17,26,33.80
2018,04,02,17,27,29.00
2018,04,02,17,28,19.30
2018,04,02,17,29,20.90
2018,04,02,17,30,24.20
2018,04,02,17,31,29.00
2018,04,02,17,32,35.40
2018,04,02,17,33,29.00
2018,04,02,17,34,30.60
2018,04,02,17,35,29.00
2018,04,02,17,36,27.40
2018,04,02,17,37,32.20
2018,04,02,17,38,29.00
2018,04,02,17,39,24.20
2018,04,02,17,40,22.50
2018,04,02,17,41,30.60
2018,04,02,17,42,25.70
2018,04,02,17,43,33.80
2018,04,02,17,44,33.80
2018,04,02,17,45,32.20
2018,04,02,17,46,30.60
2018,04,02,17,47,30.60
2018,04,02,17,48,32.20
2018,04,02,17,49,24.20
2018,04,02,17,50,25.70
2018,04,02,17,51,16.10
2018,04,02,17,52,32.20
2018,04,02,17,53,27.40
2018,04,02,17,54,27.40
2018,04,02,17,55,27.40
2018,04,02,17,56,22.50
2018,04,02,17,57,22.50
2018,04,02,17,58,32.20
2018,04,02,17,59,29.00
2018,04,02,18,00,29.00
2018,04,02,18,01,22.50
2018,04,02,18,02,19.30
2018,04,02,18,03,24.20
2018,04,02,18,04,19.30
2018,04,02,18,05,14.50
2018,04,02,18,06,22.50
2018,04,02,18,07,27.40
2018,04,02,18,08,29.00
2018,04,02,18,09,19.30
2018,04,02,18,10,20.90
2018,04,02,18,11,25.70
2018,04,02,18,12,29.00
2018,04,02,18,13,29.00
2018,04,02,18,14,19.30
2018,04,02,18,15,20.90
2018,04,02,18,16,25.70
2018,04,02,18,17,24.20
2018,04,02,18,18,20.90
2018,04,02,18,19,19.30
2018,04,02,18,20,17.70
2018,04,02,18,21,25.70
2018,04,02,18,22,14.50
2018,04,02,18,23,27.40
2018,04,02,18,24,25.70
2018,04,02,18,25,25.70
2018,04,02,18,26,33.80
2018,04,02,18,27,22.50
2018,04,02,18,28,22.50
2018,04,02,18,29,24.20
2018,04,02,18,30,22.50
2018,04,02,18,31,25.70
2018,04,02,18,32,37.00
2018,04,02,18,33,37.00
2018,04,02,18,34,24.20
2018,04,02,18,35,33.80
2018,04,02,18,36,20.90
2018,04,02,18,37,16.10
2018,04,02,18,38,17.70
2018,04,02,18,39,27.40
2018,04,02,18,40,27.40
2018,04,02,18,41,16.10
2018,04,02,18,42,17.70
2018,04,02,18,43,16.10
2018,04,02,18,44,24.20
2018,04,02,18,45,25.70
2018,04,02,18,46,20.90
2018,04,02,18,47,14.50
2018,04,02,18,48,20.90
2018,04,02,18,49,32.20
2018,04,02,18,50,27.40
2018,04,02,18,51,22.50
2018,04,02,18,52,22.50
2018,04,02,18,53,12.90
2018,04,02,18,54,14.50
2018,04,02,18,55,12.90
2018,04,02,18,56,22.50
2018,04,02,18,57,24.20
2018,04,02,18,58,29.00
2018,04,02,18,59,24.20
2018,04,02,19,00,19.30
2018,04,02,19,01,14.50
2018,04,02,19,02,17.70
2018,04,02,19,03,14.50
2018,04,02,19,04,19.30
2018,04,02,19,05,20.90
2018,04,02,19,06,20.90
2018,04,02,19,07,16.10
2018,04,02,19,08,24.20
2018,04,02,19,09,20.90
2018,04,02,19,10,20.90
2018,04,02,19,11,14.50
2018,04,02,19,12,16.10
2018,04,02,19,13,16.10
2018,04,02,19,14,22.50
2018,04,02,19,15,22.50
2018,04,02,19,16,14.50
2018,04,02,19,17,24.20
2018,04,02,19,18,22.50
2018,04,02,19,19,25.70
2018,04,02,19,20,25.70
2018,04,02,19,21,19.30
2018,04,02,19,22,20.90
2018,04,02,19,23,22.50
2018,04,02,19,24,19.30
2018,04,02,19,25,14.50
2018,04,02,19,26,17.70
2018,04,02,19,27,17.70
2018,04,02,19,28,17.70
2018,04,02,19,29,14.50
2018,04,02,19,30,12.90
2018,04,02,19,31,19.30
2018,04,02,19,32,19.30
2018,04,02,19,33,14.50
2018,04,02,19,34,14.50
2018,04,02,19,35,17.70
2018,04,02,19,36,17.70
2018,04,02,19,37,19.30
2018,04,02,19,38,14.50
2018,04,02,19,39,14.50
2018,04,02,19,40,12.90
2018,04,02,19,41,11.30
2018,04,02,19,42,19.30
2018,04,02,19,43,14.50
2018,04,02,19,44,16.10
2018,04,02,19,45,19.30
2018,04,02,19,46,19.30
2018,04,02,19,47,22.50
2018,04,02,19,48,25.70
2018,04,02,19,49,20.90
2018,04,02,19,50,11.30
2018,04,02,19,51,24.20
2018,04,02,19,52,22.50
2018,04,02,19,53,17.70
2018,04,02,19,54,14.50
2018,04,02,19,55,14.50
2018,04,02,19,56,12.90
2018,04,02,19,57,19.30
2018,04,02,19,58,16.10
2018,04,02,19,59,16.10
2018,04,02,20,00,19.30
2018,04,02,20,01,14.50
2018,04,02,20,02,11.30
2018,04,02,20,03,8.10
2018,04,02,20,04,16.10
2018,04,02,20,05,16.10
2018,04,02,20,06,20.90
2018,04,02,20,07,14.50
2018,04,02,20,08,11.30
2018,04,02,20,09,14.50
2018,04,02,20,10,14.50
2018,04,02,20,11,16.10
2018,04,02,20,12,12.90
2018,04,02,20,13,8.10
2018,04,02,20,14,14.50
2018,04,02,20,15,14.50
2018,04,02,20,16,6.40
2018,04,02,20,17,14.50
2018,04,02,20,18,11.30
2018,04,02,20,19,22.50
2018,04,02,20,20,20.90
2018,04,02,20,21,9.60
2018,04,02,20,22,9.60
2018,04,02,20,23,12.90
2018,04,02,20,24,19.30
2018,04,02,20,25,24.20
2018,04,02,20,26,9.60
2018,04,02,20,27,9.60
2018,04,02,20,28,20.90
2018,04,02,20,29,20.90
2018,04,02,20,30,22.50
2018,04,02,20,31,20.90
2018,04,02,20,32,17.70
2018,04,02,20,33,19.30
2018,04,02,20,34,11.30
2018,04,02,20,35,9.60
2018,04,02,20,36,17.70
2018,04,02,20,37,24.20
2018,04,02,20,38,17.70
2018,04,02,20,39,20.90
2018,04,02,20,40,12.90
2018,04,02,20,41,17.70
2018,04,02,20,42,19.30
2018,04,02,20,43,20.90
2018,04,02,20,44,27.40
2018,04,02,20,45,24.20
2018,04,02,20,46,14.50
2018,04,02,20,47,25.70
2018,04,02,20,48,19.30
2018,04,02,20,49,24.20
2018,04,02,20,50,17.70
2018,04,02,20,51,14.50
2018,04,02,20,52,19.30
2018,04,02,20,53,19.30
2018,04,02,20,54,20.90
2018,04,02,20,55,19.30
2018,04,02,20,56,12.90
2018,04,02,20,57,16.10
2018,04,02,20,58,17.70
2018,04,02,20,59,17.70
2018,04,02,21,00,14.50
2018,04,02,21,01,9.60
2018,04,02,21,02,17.70
2018,04,02,21,03,14.50
2018,04,02,21,04,16.10
2018,04,02,21,05,16.10
2018,04,02,21,06,12.90
2018,04,02,21,07,9.60
2018,04,02,21,08,12.90
2018,04,02,21,09,8.10
2018,04,02,21,10,8.10
2018,04,02,21,11,8.10
2018,04,02,21,12,8.10
2018,04,02,21,13,8.10
2018,04,02,21,14,9.60
2018,04,02,21,15,11.30
2018,04,02,21,16,12.90
2018,04,02,21,17,11.30
2018,04,02,21,18,16.10
2018,04,02,21,19,14.50
2018,04,02,21,20,11.30
2018,04,02,21,21,11.30
2018,04,02,21,22,17.70
2018,04,02,21,23,16.10
2018,04,02,21,24,16.10
2018,04,02,21,25,17.70
2018,04,02,21,26,11.30
2018,04,02,21,27,12.90
2018,04,02,21,28,16.10
2018,04,02,21,29,12.90
2018,04,02,21,30,16.10
2018,04,02,21,31,6.40
2018,04,02,21,32,9.60
2018,04,02,21,33,14.50
2018,04,02,21,34,16.10
2018,04,02,21,35,17.70
2018,04,02,21,36,17.70
2018,04,02,21,37,17.70
2018,04,02,21,38,11.30
2018,04,02,21,39,9.60
2018,04,02,21,40,8.10
2018,04,02,21,41,14.50
2018,04,02,21,42,16.10
2018,04,02,21,43,14.50
2018,04,02,21,44,16.10
2018,04,02,21,45,17.70
2018,04,02,21,46,22.50
2018,04,02,21,47,22.50
2018,04,02,21,48,16.10
2018,04,02,21,49,11.30
2018,04,02,21,50,8.10
2018,04,02,21,51,12.90
2018,04,02,21,52,22.50
2018,04,02,21,53,17.70
2018,04,02,21,54,25.70
2018,04,02,21,55,16.10
2018,04,02,21,56,22.50
2018,04,02,21,57,19.30
2018,04,02,21,58,11.30
2018,04,02,21,59,12.90
2018,04,02,22,00,16.10
2018,04,02,22,01,17.70
2018,04,02,22,02,11.30
2018,04,02,22,03,22.50
2018,04,02,22,04,14.50
2018,04,02,22,05,11.30
2018,04,02,22,06,17.70
2018,04,02,22,07,14.50
2018,04,02,22,08,22.50
2018,04,02,22,09,19.30
2018,04,02,22,10,19.30
2018,04,02,22,11,20.90
2018,04,02,22,12,19.30
2018,04,02,22,13,16.10
2018,04,02,22,14,19.30
2018,04,02,22,15,20.90
2018,04,02,22,16,19.30
2018,04,02,22,17,19.30
2018,04,02,22,18,17.70
2018,04,02,22,19,14.50
2018,04,02,22,20,12.90
2018,04,02,22,21,12.90
2018,04,02,22,22,11.30
2018,04,02,22,23,8.10
2018,04,02,22,24,11.30
2018,04,02,22,25,16.10
2018,04,02,22,26,16.10
2018,04,02,22,27,14.50
2018,04,02,22,28,16.10
2018,04,02,22,29,14.50
2018,04,02,22,30,17.70
2018,04,02,22,31,17.70
2018,04,02,22,32,22.50
2018,04,02,22,33,11.30
2018,04,02,22,34,11.30
2018,04,02,22,35,14.50
2018,04,02,22,36,12.90
2018,04,02,22,37,11.30
2018,04,02,22,38,9.60
2018,04,02,22,39,19.30
2018,04,02,22,40,17.70
2018,04,02,22,41,14.50
2018,04,02,22,42,12.90
2018,04,02,22,43,11.30
2018,04,02,22,44,14.50
2018,04,02,22,45,12.90
2018,04,02,22,46,9.60
2018,04,02,22,47,12.90
2018,04,02,22,48,17.70
2018,04,02,22,49,9.60
2018,04,02,22,50,11.30
2018,04,02,22,51,11.30
2018,04,02,22,52,9.60
2018,04,02,22,53,8.10
2018,04,02,22,54,8.10
2018,04,02,22,55,11.30
2018,04,02,22,56,11.30
2018,04,02,22,57,14.50
2018,04,02,22,58,9.60
2018,04,02,22,59,9.60
2018,04,02,23,00,9.60
2018,04,02,23,01,8.10
2018,04,02,23,02,6.40
2018,04,02,23,03,6.40
2018,04,02,23,04,4.80
2018,04,02,23,05,8.10
2018,04,02,23,06,9.60
2018,04,02,23,07,8.10
2018,04,02,23,08,14.50
2018,04,02,23,09,12.90
2018,04,02,23,10,8.10
2018,04,02,23,11,16.10
2018,04,02,23,12,19.30
2018,04,02,23,13,20.90
2018,04,02,23,14,14.50
2018,04,02,23,15,17.70
2018,04,02,23,16,17.70
2018,04,02,23,17,17.70
2018,04,02,23,18,22.50
2018,04,02,23,19,19.30
2018,04,02,23,20,20.90
2018,04,02,23,21,17.70
2018,04,02,23,22,24.20
2018,04,02,23,23,20.90
2018,04,02,23,24,20.90
2018,04,02,23,25,14.50
2018,04,02,23,26,11.30
2018,04,02,23,27,17.70
2018,04,02,23,28,22.50
2018,04,02,23,29,19.30
2018,04,02,23,30,20.90
2018,04,02,23,31,20.90
2018,04,02,23,32,22.50
2018,04,02,23,33,22.50
2018,04,02,23,34,19.30
2018,04,02,23,35,14.50
2018,04,02,23,36,14.50
2018,04,02,23,37,16.10
2018,04,02,23,38,9.60
2018,04,02,23,39,20.90
2018,04,02,23,40,14.50
2018,04,02,23,41,9.60
2018,04,02,23,42,16.10
2018,04,02,23,43,12.90
2018,04,02,23,44,12.90
2018,04,02,23,45,16.10
2018,04,02,23,46,14.50
2018,04,02,23,47,17.70
2018,04,02,23,48,20.90
2018,04,02,23,49,17.70
2018,04,02,23,50,16.10
2018,04,02,23,51,14.50
2018,04,02,23,52,14.50
2018,04,02,23,53,11.30
2018,04,02,23,54,9.60
2018,04,02,23,55,12.90
2018,04,02,23,56,11.30
2018,04,02,23,57,11.30
2018,04,02,23,58,19.30
2018,04,02,23,59,14.50
